Find SERT 2

NORAD ID: 4327 Int'l Des: 1970-009 Owner: LERC Country: US operational
LEOCIRCULARRETROGRADESSO

Live-Position

3D-Globus wird geladen...

Über SERT 2

Beschreibung wird geladen...

Nächste Überflüge

Passes for default location (London). Set your location on the main map for personalized predictions.

Höhenverlauf

Loading altitude history...

Zweizeiliger Elementsatz

1 04327U 70009A 26132.56431742 -.00000023 00000-0 25530-4 0 9993
2 04327 99.2830 72.1919 0005123 12.9633 160.8537 13.58736836788567
Epoch: 12. Mai 2026 • Age: 5 hours

Aktueller Status

Höhe 1046.0 km
Geschwindigkeit 7.33 km/s
Subsatellitenpunkt 21.21°N, 103.91°E
Typ other

Most Searched